Flagstaff, AZ

7:47 PM MST on February 24, 2018 (GMT -0700)
Flagstaff Pulliam

Weather History for KFLG - November, 2014

Change the Weather History Date:

Tuesday, November 18, 2014

  Actual Average Record
Temperature  
Mean Temperature 30 °F 36 °F  
Max Temperature 49 °F 49 °F 68 °F (1898)
Min Temperature 11 °F 22 °F -13 °F (1958)
Degree Days  
Heating Degree Days 35 29  
Month to date heating degree days 417 472  
Since 1 July heating degree days 1088 1355  
Cooling Degree Days 0 0  
Month to date cooling degree days 0 0  
Year to date cooling degree days 109 117  
Moisture  
Dew Point 5 °F    
Average Humidity 41    
Maximum Humidity 67    
Minimum Humidity 15    
Precipitation  
Precipitation 0.00 in 0.06 in 0.66 in (1973)
Month to date precipitation 0.60 1.02  
Year to date precipitation 17.23 19.25  
Snow  
Snow 0.00 in 0.40 in 6.50 in (1994)
Month to date snowfall T 4.9  
Since 1 July snowfall 6.4  
Snow Depth -    
Sea Level Pressure  
Sea Level Pressure 30.34 in    
Wind  
Wind Speed 4 mph (ENE)    
Max Wind Speed 13 mph    
Max Gust Speed 19 mph    
Visibility 10 miles    
Events      
T = Trace of Precipitation, MM = Missing Value Source: NWS Daily Summary

Daily Weather History Graph

Daily Weather History Graph

Search for Another Location

Airport or City:

Trip Planner

Search our weather history database for the weather conditions in past years. The results will help you decide how hot, cold, wet, or windy it might be!

Date:

Astronomy

Nov. 18, 2014 Rise Set
Actual Time 7:04 AM MST 5:19 PM MST
Civil Twilight 6:37 AM MST 5:46 PM MST
Nautical Twilight 6:06 AM MST 6:16 PM MST
Astronomical Twilight 5:36 AM MST 6:47 PM MST
Moon 3:14 AM MST (11/18) 3:07 PM MST (11/18)
Length of Visible Light 11h 08m
Length of Day
10h 14m
Waning Crescent, 14% of the Moon is Illuminated
Nov 18
Waning Crescent
Nov 22
New
Nov 29
First Quarter
Dec 6
Full
Dec 14
Last Quarter

Hourly Weather History & Observations

Time (MST) Temp. Windchill Dew Point Humidity Pressure Visibility Wind Dir Wind Speed Gust Speed Precip Events Conditions
12:57 AM 23.0 °F 13.9 °F 7.0 °F 50% 30.26 in 10.0 mi ENE 8.1 mph - N/A   Clear
1:57 AM 24.1 °F 16.0 °F 6.1 °F 46% 30.25 in 10.0 mi ENE 6.9 mph - N/A   Clear
2:57 AM 18.0 °F 11.1 °F 5.0 °F 57% 30.28 in 10.0 mi ENE 4.6 mph - N/A   Clear
3:57 AM 17.1 °F - 5.0 °F 59% 30.30 in 10.0 mi Calm Calm - N/A   Clear
4:57 AM 12.9 °F - 3.0 °F 65% 30.35 in 10.0 mi Calm Calm - N/A   Clear
5:57 AM 12.0 °F - 3.0 °F 67% 30.40 in 10.0 mi Calm Calm - N/A   Clear
6:57 AM 12.0 °F - 3.9 °F 70% 30.42 in 10.0 mi Calm Calm - N/A   Clear
7:57 AM 21.0 °F - 7.0 °F 55% 30.39 in 10.0 mi Calm Calm - N/A   Clear
8:57 AM 32.0 °F 26.4 °F 7.0 °F 35% 30.34 in 10.0 mi East 5.8 mph - N/A   Clear
9:57 AM 37.0 °F 29.8 °F 7.0 °F 29% 30.36 in 10.0 mi East 10.4 mph - N/A   Clear
10:57 AM 39.9 °F 34.5 °F 7.0 °F 26% 30.36 in 10.0 mi ESE 8.1 mph - N/A   Clear
11:57 AM 43.0 °F 38.2 °F 5.0 °F 21% 30.33 in 10.0 mi ENE 8.1 mph - N/A   Clear
12:57 PM 45.0 °F 40.6 °F 3.9 °F 18% 30.29 in 10.0 mi ESE 8.1 mph - N/A   Clear
1:57 PM 46.4 °F 43.5 °F 3.2 °F 17% 30.29 in 9.0 mi Variable 5.8 mph - N/A   Scattered Clouds
2:04 PM 46.9 °F - 3.9 °F 17% 30.33 in 7.0 mi East 5.8 mph - N/A   Overcast
2:22 PM 46.4 °F 42.9 °F 3.2 °F 17% 30.32 in 8.0 mi NE 6.9 mph - N/A   Partly Cloudy
2:57 PM 48.2 °F - 3.2 °F 16% 30.27 in 8.0 mi East 4.6 mph - N/A   Partly Cloudy
3:57 PM 48.9 °F - 3.9 °F 16% 30.27 in 7.0 mi NNE 4.6 mph - N/A   Clear
4:57 PM 43.0 °F 39.5 °F 8.1 °F 24% 30.32 in 10.0 mi East 5.8 mph - N/A   Clear
5:57 PM 33.1 °F - 7.0 °F 34% 30.39 in 10.0 mi Calm Calm - N/A   Clear
6:57 PM 26.1 °F - 5.0 °F 41% 30.44 in 10.0 mi Calm Calm - N/A   Clear
7:57 PM 24.1 °F - 5.0 °F 44% 30.40 in 10.0 mi Calm Calm - N/A   Clear
8:57 PM 21.9 °F - 6.1 °F 51% 30.37 in 10.0 mi Calm Calm - N/A   Clear
9:57 PM 21.9 °F - 5.0 °F 48% 30.34 in 10.0 mi Calm Calm - N/A   Clear
10:57 PM 19.0 °F 13.9 °F 5.0 °F 54% 30.34 in 10.0 mi SW 3.5 mph - N/A   Clear
11:57 PM 17.1 °F - 5.0 °F 59% 30.32 in 10.0 mi Calm Calm - N/A   Clear